Charles City, IA

3:12 AM CDT on March 29, 2017 (GMT -0500)
Charles City Municipal

Weather History for KCCY - September, 2013

Change the Weather History Date:

Friday, September 20, 2013

  Actual Average Record
Temperature  
Mean Temperature 58 °F -  
Max Temperature 66 °F 71 °F 89 °F (1984)
Min Temperature 50 °F 48 °F 28 °F (1991)
Degree Days  
Heating Degree Days 7    
Growing Degree Days 8 (Base 50)    
Moisture  
Dew Point 51 °F    
Average Humidity 79    
Maximum Humidity 88    
Minimum Humidity 59    
Precipitation  
Precipitation 0.00 in - - ()
Sea Level Pressure  
Sea Level Pressure 29.90 in    
Wind  
Wind Speed 11 mph (WNW)    
Max Wind Speed 22 mph    
Max Gust Speed 28 mph    
Visibility 10 miles    
Events      
Averages and records for this station are not official NWS values.
T = Trace of Precipitation, MM = Missing Value Source: NWS Daily Summary

Daily Weather History Graph

Daily Weather History Graph

Search for Another Location

Airport or City:

Trip Planner

Search our weather history database for the weather conditions in past years. The results will help you decide how hot, cold, wet, or windy it might be!

Date:

Astronomy

Sep. 20, 2013 Rise Set
Actual Time 6:55 AM CDT 7:10 PM CDT
Civil Twilight 6:27 AM CDT 7:39 PM CDT
Nautical Twilight 5:54 AM CDT 8:12 PM CDT
Astronomical Twilight 5:19 AM CDT 8:46 PM CDT
Moon 7:41 PM CDT (9/20) 8:14 AM CDT (9/20)
Length of Visible Light 13h 11m
Length of Day
12h 15m
Full, 98% of the Moon is Illuminated
Sep 20
Full
Sep 26
Last Quarter
Oct 4
New
Oct 11
First Quarter
Oct 18
Full

Hourly Weather History & Observations

Time (CDT) Temp. Dew Point Humidity Pressure Visibility Wind Dir Wind Speed Gust Speed Precip Events Conditions
12:15 AM 66.2 °F 62.6 °F 88% 29.83 in 10.0 mi WNW 5.8 mph - N/A   Overcast
12:35 AM 66.2 °F 62.6 °F 88% 29.84 in 10.0 mi West 8.1 mph - N/A   Overcast
12:55 AM 66.2 °F 62.6 °F 88% 29.85 in 10.0 mi West 10.4 mph - N/A   Overcast
1:15 AM 64.4 °F 60.8 °F 88% 29.85 in 10.0 mi West 9.2 mph - N/A   Overcast
1:35 AM 64.4 °F 59.0 °F 83% 29.85 in 10.0 mi West 9.2 mph - N/A   Overcast
1:55 AM 62.6 °F 57.2 °F 82% 29.86 in 10.0 mi WNW 9.2 mph - N/A   Mostly Cloudy
2:15 AM 60.8 °F 55.4 °F 82% 29.86 in 10.0 mi WNW 10.4 mph - N/A   Scattered Clouds
2:35 AM 60.8 °F 55.4 °F 82% 29.86 in 10.0 mi West 9.2 mph - N/A   Overcast
2:55 AM 60.8 °F 53.6 °F 77% 29.86 in 10.0 mi WNW 11.5 mph 17.3 mph N/A   Overcast
3:15 AM 60.8 °F 53.6 °F 77% 29.86 in 10.0 mi WNW 11.5 mph - N/A   Overcast
3:35 AM 60.8 °F 53.6 °F 77% 29.86 in 10.0 mi WNW 12.7 mph - N/A   Overcast
3:55 AM 59.0 °F 53.6 °F 82% 29.86 in 10.0 mi WNW 10.4 mph 16.1 mph N/A   Overcast
4:15 AM 59.0 °F 53.6 °F 82% 29.86 in 10.0 mi WNW 11.5 mph - N/A   Mostly Cloudy
4:35 AM 59.0 °F 53.6 °F 82% 29.85 in 10.0 mi WNW 10.4 mph - N/A   Mostly Cloudy
4:55 AM 59.0 °F 53.6 °F 82% 29.86 in 10.0 mi WNW 10.4 mph - N/A   Partly Cloudy
5:15 AM 57.2 °F 53.6 °F 88% 29.86 in 10.0 mi WNW 12.7 mph - N/A   Mostly Cloudy
5:35 AM 57.2 °F 53.6 °F 88% 29.86 in 10.0 mi WNW 13.8 mph - N/A   Overcast
5:55 AM 57.2 °F 51.8 °F 82% 29.87 in 10.0 mi West 11.5 mph - N/A   Partly Cloudy
6:15 AM 55.4 °F 51.8 °F 88% 29.88 in 10.0 mi WNW 11.5 mph 19.6 mph N/A   Clear
6:35 AM 55.4 °F 51.8 °F 88% 29.89 in 10.0 mi WNW 10.4 mph - N/A   Clear
6:55 AM 53.6 °F 50.0 °F 88% 29.89 in 10.0 mi WNW 9.2 mph - N/A   Clear
7:15 AM 53.6 °F 50.0 °F 88% 29.90 in 10.0 mi WNW 10.4 mph - N/A   Clear
7:35 AM 53.6 °F 50.0 °F 88% 29.90 in 10.0 mi WNW 12.7 mph - N/A   Clear
7:55 AM 53.6 °F 50.0 °F 88% 29.91 in 10.0 mi WNW 11.5 mph - N/A   Clear
8:15 AM 53.6 °F 50.0 °F 88% 29.91 in 10.0 mi WNW 10.4 mph 19.6 mph N/A   Clear
8:35 AM 53.6 °F 50.0 °F 88% 29.91 in 10.0 mi WNW 11.5 mph - N/A   Clear
8:55 AM 55.4 °F 50.0 °F 82% 29.91 in 10.0 mi West 9.2 mph 15.0 mph N/A   Clear
9:15 AM 57.2 °F 50.0 °F 77% 29.91 in 10.0 mi WNW 12.7 mph - N/A   Clear
9:35 AM 57.2 °F 50.0 °F 77% 29.92 in 10.0 mi WNW 13.8 mph 19.6 mph N/A   Mostly Cloudy
9:55 AM 57.2 °F 50.0 °F 77% 29.92 in 10.0 mi WNW 13.8 mph 20.7 mph N/A   Overcast
10:15 AM 57.2 °F 50.0 °F 77% 29.92 in 10.0 mi WNW 15.0 mph - N/A   Overcast
10:35 AM 57.2 °F 51.8 °F 82% 29.92 in 10.0 mi WNW 17.3 mph - N/A   Overcast
10:55 AM 57.2 °F 51.8 °F 82% 29.93 in 10.0 mi WNW 13.8 mph 21.9 mph N/A   Overcast
11:15 AM 57.2 °F 51.8 °F 82% 29.93 in 10.0 mi WNW 12.7 mph 21.9 mph N/A   Overcast
11:35 AM 57.2 °F 50.0 °F 77% 29.93 in 10.0 mi WNW 12.7 mph 20.7 mph N/A   Overcast
11:55 AM 59.0 °F 51.8 °F 77% 29.92 in 10.0 mi WNW 12.7 mph 19.6 mph N/A   Overcast
12:15 PM 59.0 °F 51.8 °F 77% 29.92 in 10.0 mi West 16.1 mph - N/A   Overcast
12:35 PM 59.0 °F 51.8 °F 77% 29.91 in 10.0 mi West 15.0 mph 23.0 mph N/A   Overcast
12:55 PM 59.0 °F 51.8 °F 77% 29.91 in 9.0 mi WNW 16.1 mph 23.0 mph N/A   Overcast
1:15 PM 59.0 °F 53.6 °F 82% 29.91 in 10.0 mi WNW 17.3 mph - N/A   Overcast
1:35 PM 60.8 °F 53.6 °F 77% 29.90 in 10.0 mi WNW 13.8 mph 21.9 mph N/A   Overcast
1:55 PM 60.8 °F 51.8 °F 72% 29.90 in 10.0 mi WNW 15.0 mph 26.5 mph N/A   Overcast
2:15 PM 60.8 °F 51.8 °F 72% 29.90 in 10.0 mi WNW 15.0 mph 27.6 mph N/A   Overcast
2:35 PM 62.6 °F 51.8 °F 68% 29.90 in 10.0 mi WNW 21.9 mph - N/A   Overcast
2:55 PM 62.6 °F 51.8 °F 68% 29.90 in 10.0 mi WNW 13.8 mph 25.3 mph N/A   Overcast
3:15 PM 64.4 °F 50.0 °F 59% 29.90 in 10.0 mi NW 17.3 mph 25.3 mph N/A   Overcast
3:35 PM 62.6 °F 50.0 °F 63% 29.90 in 10.0 mi WNW 15.0 mph 24.2 mph N/A   Overcast
3:55 PM 62.6 °F 50.0 °F 63% 29.90 in 10.0 mi NW 16.1 mph - N/A   Overcast
4:15 PM 62.6 °F 50.0 °F 63% 29.90 in 10.0 mi WNW 13.8 mph 21.9 mph N/A   Overcast
4:35 PM 62.6 °F 50.0 °F 63% 29.90 in 10.0 mi WNW 12.7 mph - N/A   Overcast
4:55 PM 62.6 °F 50.0 °F 63% 29.90 in 10.0 mi WNW 12.7 mph 24.2 mph N/A   Overcast
5:15 PM 62.6 °F 50.0 °F 63% 29.90 in 10.0 mi WNW 15.0 mph - N/A   Overcast
5:35 PM 62.6 °F 50.0 °F 63% 29.90 in 10.0 mi WNW 19.6 mph - N/A   Mostly Cloudy
5:55 PM 60.8 °F 50.0 °F 68% 29.90 in 10.0 mi West 18.4 mph - N/A   Mostly Cloudy
6:15 PM 60.8 °F 48.2 °F 63% 29.91 in 10.0 mi WNW 15.0 mph 21.9 mph N/A   Overcast
6:35 PM 60.8 °F 48.2 °F 63% 29.92 in 10.0 mi WNW 15.0 mph - N/A   Overcast
6:55 PM 59.0 °F 48.2 °F 67% 29.92 in 10.0 mi West 10.4 mph 17.3 mph N/A   Overcast
7:15 PM 57.2 °F 50.0 °F 77% 29.92 in 10.0 mi West 10.4 mph - N/A   Overcast
7:35 PM 57.2 °F 48.2 °F 72% 29.92 in 10.0 mi West 10.4 mph 17.3 mph N/A   Scattered Clouds
7:55 PM 55.4 °F 48.2 °F 77% 29.92 in 10.0 mi West 6.9 mph - N/A   Scattered Clouds
8:15 PM 53.6 °F 48.2 °F 82% 29.93 in 10.0 mi WNW 6.9 mph - N/A   Partly Cloudy
8:35 PM 53.6 °F 48.2 °F 82% 29.94 in 10.0 mi WNW 4.6 mph - N/A   Scattered Clouds
8:55 PM 53.6 °F 50.0 °F 88% 29.94 in 10.0 mi WNW 5.8 mph - N/A   Mostly Cloudy
9:15 PM 53.6 °F 50.0 °F 88% 29.95 in 10.0 mi WNW 6.9 mph - N/A   Overcast
9:35 PM 53.6 °F 48.2 °F 82% 29.95 in 10.0 mi WNW 8.1 mph - N/A   Scattered Clouds
9:55 PM 53.6 °F 48.2 °F 82% 29.96 in 10.0 mi NW 11.5 mph - N/A   Clear
10:15 PM 51.8 °F 48.2 °F 88% 29.96 in 10.0 mi WNW 8.1 mph - N/A   Clear
10:35 PM 51.8 °F 48.2 °F 88% 29.96 in 10.0 mi NW 6.9 mph - N/A   Clear
10:55 PM 51.8 °F 46.4 °F 82% 29.96 in 10.0 mi NW 9.2 mph - N/A   Clear
11:15 PM 51.8 °F 46.4 °F 82% 29.95 in 10.0 mi NW 9.2 mph - N/A   Clear
11:35 PM 50.0 °F 46.4 °F 87% 29.95 in 10.0 mi WNW 8.1 mph - N/A   Clear
11:55 PM 50.0 °F 46.4 °F 87% 29.95 in 10.0 mi WNW 8.1 mph - N/A   Clear